Wind_Speed
19 18 17 16 15 14 13 13 10 8 7 6 7 8 7 7 7 6 5 4 5 6 8 9 9 10 9 9 9 9 10 11 11 12 13 13 12 12 12 12 13 13 14 14 14 14 15 16 17
19 19 18 17 16 16 16 14 10 8 6 6 8 9 9 9 7 6 5 4 5 6 6 7 8 8 8 8 8 8 8 9 10 10 11 12 12 11 11 12 12 13 14 14 15 16 17 18 18
18 19 19 18 17 17 18 14 11 9 7 6 9 10 10 9 7 6 5 4 5 6 6 6 6 7 7 6 6 6 7 8 9 10 11 11 11 11 10 11 12 13 13 15 16 17 18 18 18
18 19 19 19 18 18 18 15 12 8 6 5 8 10 10 9 7 6 5 6 7 7 7 7 7 7 7 6 6 6 6 7 8 9 9 10 10 10 10 11 12 13 14 15 16 17 17 17 16
17 19 19 20 20 19 18 15 9 5 3 3 6 10 10 8 7 7 8 8 8 8 9 9 9 9 8 7 6 6 6 6 7 7 8 9 9 9 10 11 12 13 14 15 16 17 17 17 16
17 18 19 21 22 20 18 15 9 5 1 3 6 9 10 8 9 10 10 11 11 11 11 12 12 11 10 8 7 6 6 6 6 7 7 8 8 9 11 12 13 13 14 15 17 18 19 19 19
16 18 20 24 25 23 21 16 11 6 3 4 6 8 8 9 10 11 13 14 15 15 14 14 14 13 12 10 8 7 6 5 5 6 6 7 8 9 10 11 12 13 15 17 18 20 21 21 20
16 20 23 27 28 26 23 17 13 8 6 6 6 7 7 8 10 12 13 15 16 17 17 17 16 15 13 11 9 7 6 5 5 5 6 6 7 8 9 10 12 14 16 17 18 20 20 21 20
18 22 26 29 29 27 23 20 16 10 8 7 6 5 5 6 8 9 11 13 15 16 18 18 18 17 15 12 10 8 7 6 5 4 5 5 6 7 9 10 12 13 14 15 16 18 18 18 19
19 26 30 31 30 27 24 22 18 12 8 8 6 2 2 4 6 8 10 11 13 15 17 19 19 19 17 14 12 10 8 7 6 5 5 5 6 7 8 9 10 11 12 13 14 15 16 16 17
23 29 32 32 29 27 25 23 19 15 10 8 6 4 2 2 5 7 9 10 11 13 16 17 18 19 18 16 14 12 10 9 7 6 6 5 6 7 8 9 10 11 12 13 14 15 16 16 17
28 32 31 31 28 27 26 23 20 17 13 11 9 7 6 6 6 7 9 10 10 12 14 16 19 20 19 17 16 15 13 11 10 8 7 7 7 7 8 9 10 11 12 13 14 16 17 18 19
32 34 32 30 28 27 26 24 21 18 16 15 12 10 8 8 8 8 9 10 11 14 15 16 20 21 20 19 17 16 15 14 12 11 9 9 9 9 9 10 11 12 13 14 15 17 18 20 21
36 36 34 31 29 28 28 25 21 18 17 16 14 12 11 11 12 11 11 11 13 14 16 18 20 22 22 22 20 18 17 16 15 14 13 12 12 12 13 13 14 15 17 18 19 21 22 23 25
37 37 35 33 31 31 29 27 24 21 19 18 17 16 15 15 15 15 14 14 15 16 17 19 21 23 24 23 22 21 20 20 19 18 17 17 16 17 18 19 20 21 22 22 23 24 26 27 28
36 36 36 35 35 34 31 28 27 24 22 21 21 21 20 19 19 18 17 16 16 17 18 21 23 25 25 25 24 23 23 24 24 23 22 22 22 22 23 25 26 26 27 27 27 28 30 31 32
35 36 36 37 36 36 33 29 28 27 27 26 26 26 26 25 23 20 18 17 17 18 20 22 25 27 28 28 27 25 26 26 28 28 28 28 27 27 28 30 31 31 31 31 31 32 33 34 35
36 37 38 39 39 38 37 31 29 31 31 32 32 31 30 29 26 22 20 18 18 19 22 25 27 29 30 30 29 29 28 28 30 32 32 31 32 33 33 34 34 34 33 32 32 34 34 36 38
38 39 39 39 41 41 40 36 33 34 35 35 35 34 33 31 27 25 22 21 20 21 24 27 29 31 33 33 32 31 31 30 31 30 33 34 34 35 36 35 34 35 33 32 32 33 35 37 38
38 39 38 38 41 44 45 43 38 37 38 37 36 35 33 31 29 28 26 24 23 23 26 28 31 33 35 35 35 33 33 32 30 29 29 31 33 34 34 34 34 33 33 33 34 35 37 38 38
37 36 35 36 40 44 46 46 42 40 40 39 37 37 35 32 31 31 29 27 26 26 28 30 33 36 37 37 36 36 35 33 30 29 28 28 29 31 32 32 33 34 35 37 37 38 39 40 41
34 32 33 36 39 41 44 45 42 40 40 39 38 38 36 34 33 33 32 31 30 30 31 34 37 38 40 39 38 38 37 36 32 28 27 26 27 28 30 31 34 35 37 38 40 41 43 44 45
29 29 32 34 37 39 41 42 40 39 39 38 39 39 38 36 36 35 34 34 34 35 36 38 40 42 42 41 41 39 39 36 32 28 27 26 27 28 30 34 36 37 40 42 44 45 47 48 49
29 31 33 35 36 38 36 39 39 37 37 37 38 39 39 38 38 37 36 36 37 39 40 42 43 44 43 43 43 40 39 36 31 29 29 27 28 30 32 36 39 41 44 46 48 50 51 53 54
33 34 35 34 35 35 32 36 37 36 36 36 37 38 38 39 38 38 37 38 39 41 42 42 43 43 43 45 44 41 37 33 30 30 29 29 31 34 36 39 43 45 48 51 53 55 56 58 59
34 35 35 35 35 32 30 33 33 32 31 32 33 33 33 34 35 35 36 36 36 36 36 37 38 40 40 41 40 37 35 33 32 31 31 32 34 37 40 44 47 49 52 55 57 59 60 62 64
32 34 33 34 34 32 32 32 32 29 27 28 29 30 30 30 31 30 30 30 30 31 32 34 36 38 38 38 38 38 37 35 33 33 35 36 38 41 45 47 51 54 56 59 62 63 65 67 69
34 34 34 34 33 32 32 30 28 26 26 27 28 30 30 30 30 30 29 29 29 30 32 34 36 37 39 41 41 40 38 37 36 37 38 40 43 46 49 52 56 58 61 64 66 67 69 71 71
36 36 35 35 33 31 30 28 27 27 27 28 29 30 30 29 28 28 28 29 30 32 34 37 39 41 43 44 42 42 40 40 39 40 42 45 47 51 54 57 60 62 65 67 69 70 71 71 70
35 36 35 34 33 32 31 30 28 28 28 29 30 30 30 29 28 28 29 31 33 36 38 41 43 44 46 44 42 41 41 40 42 43 46 49 52 56 58 61 63 65 67 69 70 70 69 68 66
Wind_Direction
213 211 211 213 213 216 223 243 265 292 309 333 353 358 358 350 346 344 338 326 312 305 304 300 291 284 277 275 280 286 294 300 301 299 295 291 287 284 282 282 284 288 290 291 291 289 288 288 289
220 217 217 215 215 214 224 242 266 291 311 348 360 357 0 4 10 13 7 1 353 347 337 320 303 294 287 282 284 290 298 302 302 300 298 294 291 288 286 287 287 288 289 290 290 289 288 287 287
230 223 218 212 209 218 229 243 262 283 307 346 4 6 10 13 14 13 16 17 12 7 355 338 324 315 306 299 295 296 301 303 301 297 296 293 290 289 289 290 290 291 291 291 292 292 291 291 291
232 227 220 209 204 218 231 242 257 275 301 342 10 19 18 16 17 20 26 23 19 12 0 349 341 333 326 318 311 306 308 308 303 298 297 294 291 291 292 294 296 296 296 296 297 297 297 298 298
232 226 218 202 200 215 229 236 246 260 299 358 27 30 25 28 33 36 35 28 19 12 3 357 354 348 340 334 326 318 313 309 304 300 301 300 297 297 296 298 299 300 300 300 300 299 300 300 299
228 222 210 194 194 209 225 228 224 223 129 73 59 45 38 43 47 44 39 32 23 14 7 4 2 359 355 349 344 336 324 311 304 299 300 301 298 297 297 298 300 300 300 299 297 297 297 296 296
223 211 195 187 192 204 217 221 219 205 150 104 76 55 50 48 47 45 42 35 27 19 16 13 9 3 357 353 349 345 335 319 307 298 295 297 300 299 296 295 295 296 297 295 294 293 293 294 295
213 201 188 186 194 203 212 215 213 206 159 126 93 63 49 44 45 44 42 36 28 23 20 17 13 6 359 353 347 341 335 328 314 302 297 294 293 293 293 293 292 293 294 294 293 293 294 294 294
204 193 186 188 196 205 209 212 214 208 170 134 102 66 43 36 35 34 33 31 25 22 18 15 11 8 2 356 349 340 331 323 319 311 305 299 295 293 293 293 292 291 292 292 292 293 294 295 295
200 188 190 194 200 207 211 215 218 211 181 150 128 111 35 18 13 13 12 12 16 16 12 8 5 2 360 354 345 336 325 316 311 306 305 304 301 298 297 296 295 293 292 293 295 296 298 299 298
197 192 197 199 206 210 214 218 221 215 199 182 169 181 229 310 338 343 348 351 356 1 3 2 359 354 351 348 340 330 320 310 304 301 304 306 304 301 301 300 296 295 296 299 302 303 304 302 301
197 201 204 208 212 214 217 221 224 224 216 205 198 202 223 258 295 314 325 331 336 342 349 352 350 346 343 341 338 330 322 314 308 306 306 306 305 303 303 303 302 302 303 306 307 307 306 305 303
200 206 210 215 218 219 221 226 231 235 235 227 216 216 231 254 276 290 298 314 320 328 333 336 339 340 337 335 333 329 325 319 314 309 306 305 302 299 299 301 304 305 306 308 309 310 310 310 309
204 212 217 220 222 226 226 231 236 244 256 250 236 235 244 258 268 275 282 297 311 321 327 330 333 335 332 327 323 321 319 315 309 304 301 299 298 297 297 297 298 299 299 301 303 305 307 309 309
211 217 222 225 226 229 232 234 239 250 262 262 253 249 254 263 268 272 279 290 302 312 321 325 327 327 325 322 317 313 309 304 299 295 292 289 288 289 289 289 290 291 292 294 296 299 301 303 304
218 222 225 227 230 233 235 236 244 252 261 263 259 258 261 264 268 272 278 286 297 308 317 321 320 320 319 317 312 307 302 296 291 288 285 282 281 281 283 284 285 286 288 290 292 295 297 298 299
223 226 228 229 234 236 239 238 241 251 258 260 258 258 259 262 266 272 276 282 292 304 312 315 315 315 314 313 309 303 298 293 287 284 281 279 277 276 278 280 281 283 283 286 289 292 294 296 298
228 229 231 231 234 237 242 245 243 247 253 258 260 260 260 261 264 267 271 276 286 297 305 309 309 311 310 308 305 300 296 292 287 279 276 276 277 276 276 279 280 282 282 284 288 291 294 297 299
232 232 232 233 235 240 245 248 248 250 253 257 259 259 260 261 262 262 267 273 282 291 298 302 304 306 305 302 300 299 294 291 289 282 276 272 274 277 276 279 281 282 282 285 290 295 298 300 301
232 234 234 234 236 239 244 249 250 252 253 255 258 260 262 261 260 263 267 272 279 286 292 296 300 300 300 297 294 294 293 291 290 290 285 277 275 278 278 280 280 283 287 290 295 301 303 304 304
232 234 234 232 232 237 241 244 247 248 250 254 259 262 264 263 262 263 265 269 275 281 287 291 295 295 295 293 289 289 289 290 293 294 289 283 280 279 280 283 289 292 294 300 303 307 307 305 304
233 233 233 233 233 237 241 245 245 246 247 252 257 261 262 262 262 263 266 270 274 277 281 285 288 289 289 287 285 287 287 289 296 297 295 287 285 286 288 294 297 297 301 304 306 308 307 305 303
231 230 231 232 234 237 242 247 248 248 249 251 255 259 262 262 263 264 267 271 274 277 280 282 284 285 285 282 283 284 284 290 301 299 297 291 290 295 295 298 298 302 304 305 306 306 305 304 302
223 224 228 231 235 238 239 247 252 252 252 252 254 258 262 263 265 268 270 272 275 277 279 281 282 283 283 281 282 285 286 295 299 299 298 294 295 297 297 299 301 303 304 304 304 303 303 302 302
220 221 225 229 234 237 238 244 251 254 256 256 257 259 260 263 265 267 269 271 272 274 276 278 280 282 282 284 285 287 292 299 298 295 294 294 295 295 297 299 301 302 302 302 302 302 301 301 301
219 222 227 230 233 236 236 243 248 252 254 256 257 259 261 263 265 266 267 268 269 271 273 276 278 281 284 289 291 293 299 300 297 294 293 293 293 295 298 299 300 301 300 300 300 301 300 300 300
220 224 228 234 237 239 240 244 247 249 250 252 255 257 260 263 266 266 267 268 270 273 276 278 281 284 289 295 299 301 301 299 296 293 293 294 294 296 298 299 299 299 299 299 300 300 299 300 300
220 221 226 233 238 240 241 243 246 248 250 252 255 257 260 263 265 266 269 273 276 278 281 285 288 292 295 298 299 302 302 299 297 293 294 295 295 296 297 297 297 297 298 298 299 299 299 300 300
218 223 229 235 239 242 244 246 249 256 257 258 258 260 261 264 266 270 275 279 282 285 289 291 292 295 296 296 297 299 299 297 296 294 295 294 295 296 297 297 297 297 297 298 298 299 299 300 300
223 228 231 237 240 243 247 250 254 261 264 264 263 262 262 264 268 273 278 283 286 289 292 293 294 295 296 295 295 296 296 295 295 295 295 295 295 295 295 296 296 296 296 297 297 298 299 300 300
Height
5876 5878 5881 5883 5886 5888 5888 5889 5891 5893 5893 5893 5892 5890 5889 5889 5889 5891 5889 5887 5887 5886 5885 5885 5885 5885 5885 5885 5885 5886 5886 5886 5887 5888 5888 5889 5890 5891 5891 5891 5892 5892 5893 5894 5895 5895 5896 5897 5897
5874 5876 5879 5881 5884 5885 5886 5888 5890 5892 5892 5892 5891 5889 5888 5887 5887 5887 5886 5886 5886 5885 5884 5884 5884 5883 5883 5883 5883 5884 5884 5885 5885 5886 5886 5887 5888 5888 5889 5889 5890 5890 5891 5892 5892 5893 5893 5894 5894
5871 5874 5877 5879 5882 5883 5885 5888 5890 5891 5892 5891 5890 5888 5888 5887 5887 5886 5886 5886 5886 5885 5884 5884 5883 5883 5882 5882 5882 5882 5882 5883 5883 5884 5884 5885 5886 5886 5887 5888 5888 5889 5889 5889 5889 5890 5890 5891 5891
5868 5871 5874 5878 5881 5882 5884 5887 5889 5891 5891 5891 5889 5888 5888 5888 5888 5887 5886 5886 5886 5885 5885 5884 5884 5882 5882 5881 5881 5881 5881 5881 5881 5882 5882 5883 5884 5884 5885 5886 5886 5886 5887 5887 5886 5886 5887 5887 5888
5866 5869 5872 5875 5879 5881 5883 5886 5888 5889 5890 5890 5889 5887 5888 5889 5889 5888 5887 5887 5886 5886 5885 5885 5883 5882 5881 5881 5880 5880 5880 5880 5880 5880 5881 5881 5882 5883 5883 5884 5884 5884 5884 5884 5883 5883 5884 5884 5885
5865 5866 5870 5874 5877 5880 5881 5884 5886 5888 5888 5889 5888 5887 5888 5889 5889 5889 5888 5888 5887 5886 5885 5884 5883 5882 5881 5880 5880 5879 5879 5879 5879 5879 5880 5880 5880 5881 5881 5881 5882 5881 5881 5881 5881 5880 5880 5881 5882
5863 5865 5868 5872 5875 5878 5879 5881 5885 5886 5887 5887 5887 5887 5888 5890 5890 5890 5889 5888 5887 5886 5885 5883 5882 5881 5881 5880 5879 5879 5878 5878 5878 5878 5878 5879 5879 5879 5879 5880 5880 5879 5879 5878 5878 5877 5877 5877 5877
5861 5864 5866 5869 5872 5875 5877 5880 5883 5885 5886 5886 5886 5886 5888 5890 5890 5890 5889 5889 5888 5887 5885 5884 5882 5881 5880 5880 5879 5878 5878 5877 5877 5877 5877 5877 5877 5877 5877 5877 5877 5877 5876 5875 5875 5874 5874 5874 5873
5859 5863 5864 5867 5870 5873 5876 5878 5881 5883 5884 5884 5885 5886 5888 5889 5889 5889 5889 5888 5888 5887 5885 5884 5883 5882 5881 5879 5879 5878 5877 5876 5876 5876 5876 5876 5875 5875 5875 5875 5874 5874 5873 5872 5872 5871 5871 5870 5869
5858 5861 5862 5865 5868 5871 5874 5876 5879 5881 5882 5883 5884 5885 5887 5888 5889 5889 5888 5888 5887 5886 5885 5884 5883 5882 5880 5879 5878 5877 5876 5875 5875 5874 5874 5874 5873 5873 5872 5872 5871 5871 5870 5869 5869 5868 5868 5867 5866
5857 5859 5860 5862 5865 5868 5872 5874 5877 5879 5880 5882 5883 5884 5886 5887 5888 5888 5888 5887 5886 5885 5884 5883 5882 5881 5880 5879 5878 5876 5875 5875 5874 5873 5872 5872 5871 5871 5870 5869 5869 5868 5867 5866 5866 5865 5865 5864 5863
5855 5856 5858 5860 5863 5866 5869 5872 5875 5877 5879 5880 5881 5883 5885 5886 5887 5887 5887 5886 5885 5884 5884 5883 5882 5881 5879 5878 5877 5876 5875 5873 5872 5871 5870 5869 5869 5868 5867 5867 5866 5865 5865 5864 5863 5862 5862 5861 5860
5853 5854 5856 5858 5861 5864 5867 5869 5872 5875 5877 5878 5879 5881 5883 5885 5886 5886 5886 5885 5884 5883 5882 5881 5881 5880 5878 5877 5876 5874 5873 5872 5870 5869 5868 5867 5866 5865 5864 5864 5863 5862 5861 5860 5859 5858 5858 5856 5855
5849 5850 5853 5855 5858 5861 5864 5867 5870 5873 5874 5875 5877 5879 5881 5883 5884 5884 5884 5883 5882 5881 5881 5880 5879 5878 5876 5875 5873 5872 5871 5869 5868 5866 5865 5863 5862 5862 5861 5860 5859 5859 5858 5857 5855 5854 5853 5852 5851
5845 5848 5851 5854 5856 5858 5861 5865 5867 5870 5871 5872 5874 5876 5878 5879 5881 5881 5881 5881 5880 5879 5878 5877 5876 5875 5873 5872 5870 5868 5867 5865 5863 5862 5861 5859 5858 5857 5857 5856 5855 5854 5853 5852 5850 5849 5848 5847 5845
5841 5845 5848 5851 5853 5855 5859 5862 5864 5866 5867 5868 5870 5872 5874 5875 5877 5878 5878 5878 5877 5876 5875 5874 5873 5871 5870 5868 5866 5864 5862 5860 5858 5856 5855 5854 5853 5852 5851 5850 5848 5847 5846 5845 5844 5843 5842 5840 5838
5838 5841 5844 5848 5849 5851 5854 5858 5861 5861 5862 5864 5865 5867 5869 5871 5872 5874 5874 5874 5873 5873 5871 5870 5868 5867 5865 5863 5862 5859 5857 5854 5852 5850 5849 5847 5846 5845 5844 5842 5841 5839 5838 5837 5836 5835 5834 5832 5831
5834 5837 5840 5843 5845 5847 5849 5853 5857 5856 5858 5859 5860 5862 5863 5865 5868 5869 5869 5870 5869 5869 5867 5866 5864 5862 5860 5858 5856 5853 5851 5848 5845 5843 5841 5840 5838 5837 5835 5834 5832 5831 5830 5830 5829 5827 5826 5824 5822
5828 5831 5835 5839 5841 5842 5844 5848 5851 5851 5852 5854 5855 5856 5858 5860 5862 5863 5864 5864 5865 5864 5863 5861 5859 5857 5854 5851 5849 5846 5843 5840 5837 5834 5833 5831 5830 5829 5827 5826 5825 5823 5822 5822 5821 5819 5818 5816 5814
5820 5824 5830 5835 5837 5837 5838 5840 5845 5846 5847 5848 5849 5850 5851 5854 5855 5857 5858 5859 5859 5859 5858 5856 5854 5851 5848 5845 5842 5839 5835 5832 5830 5827 5826 5824 5822 5820 5819 5818 5817 5816 5815 5813 5812 5810 5809 5807 5804
5813 5818 5823 5827 5829 5829 5830 5833 5838 5841 5841 5843 5843 5844 5845 5846 5849 5850 5851 5852 5853 5853 5852 5850 5848 5845 5842 5839 5836 5832 5828 5824 5822 5821 5819 5817 5815 5813 5811 5810 5809 5808 5806 5805 5803 5801 5799 5797 5795
5808 5812 5814 5817 5820 5821 5823 5825 5831 5834 5836 5837 5838 5837 5838 5840 5841 5843 5845 5846 5846 5847 5846 5844 5841 5838 5835 5831 5827 5823 5820 5816 5815 5814 5812 5810 5808 5806 5804 5803 5802 5800 5798 5796 5794 5792 5790 5787 5784
5802 5804 5806 5808 5811 5814 5816 5818 5824 5827 5830 5832 5832 5831 5832 5833 5835 5837 5838 5839 5839 5839 5839 5837 5834 5830 5827 5823 5818 5814 5812 5809 5807 5806 5804 5802 5800 5799 5797 5796 5795 5792 5790 5787 5785 5782 5780 5777 5773
5793 5796 5798 5801 5805 5809 5812 5814 5817 5820 5822 5824 5825 5825 5825 5826 5828 5829 5831 5832 5832 5832 5830 5828 5825 5822 5818 5814 5810 5806 5803 5801 5800 5798 5796 5794 5793 5792 5790 5788 5786 5784 5781 5778 5775 5772 5769 5765 5762
5787 5790 5793 5796 5799 5804 5808 5809 5811 5813 5815 5816 5817 5818 5819 5819 5820 5822 5823 5824 5824 5824 5822 5820 5817 5814 5810 5805 5801 5797 5794 5793 5791 5790 5788 5787 5786 5785 5783 5781 5778 5775 5772 5768 5765 5761 5757 5753 5749
5782 5786 5789 5792 5795 5799 5801 5803 5806 5807 5808 5809 5810 5811 5812 5813 5814 5815 5816 5816 5816 5815 5814 5812 5809 5805 5802 5799 5794 5789 5786 5785 5784 5782 5782 5780 5779 5777 5775 5772 5769 5765 5762 5758 5754 5750 5745 5740 5735
5778 5781 5785 5788 5790 5793 5795 5797 5799 5801 5802 5804 5805 5806 5806 5807 5808 5809 5809 5809 5808 5808 5806 5804 5801 5797 5794 5791 5787 5783 5781 5779 5778 5776 5775 5773 5771 5769 5766 5762 5759 5755 5751 5746 5742 5737 5732 5726 5720
5774 5777 5780 5782 5784 5787 5790 5792 5794 5795 5797 5798 5799 5800 5801 5802 5802 5802 5802 5802 5801 5800 5798 5796 5793 5790 5787 5784 5781 5777 5775 5773 5772 5770 5767 5765 5762 5759 5755 5751 5747 5743 5738 5734 5729 5723 5717 5711 5705
5768 5772 5774 5777 5779 5782 5784 5789 5789 5789 5791 5792 5793 5794 5795 5795 5796 5795 5795 5794 5793 5791 5790 5787 5785 5782 5779 5776 5773 5770 5768 5765 5763 5761 5758 5755 5751 5747 5743 5739 5735 5730 5725 5719 5714 5708 5702 5696 5689
5762 5765 5769 5772 5774 5777 5779 5784 5783 5784 5785 5786 5786 5787 5788 5788 5788 5788 5787 5786 5785 5783 5781 5779 5776 5773 5770 5767 5764 5761 5759 5756 5753 5751 5747 5744 5739 5735 5731 5726 5721 5716 5711 5705 5699 5693 5687 5680 5674